Fremont, NE

12:08 PM CDT on June 26, 2017 (GMT -0500)
Fremont Municipal

Weather History for KFET - January, 2014

Change the Weather History Date:

Thursday, January 16, 2014

  Actual Average Record
Temperature  
Mean Temperature 31 °F -  
Max Temperature 46 °F 33 °F 60 °F (1992)
Min Temperature 16 °F 13 °F -19 °F (1977)
Degree Days  
Heating Degree Days 34    
Moisture  
Dew Point 18 °F    
Average Humidity 54    
Maximum Humidity 71    
Minimum Humidity 41    
Precipitation  
Precipitation 0.00 in - - ()
Sea Level Pressure  
Sea Level Pressure 29.87 in    
Wind  
Wind Speed 21 mph (NW)    
Max Wind Speed 40 mph    
Max Gust Speed 54 mph    
Visibility 10 miles    
Events      
Averages and records for this station are not official NWS values.
T = Trace of Precipitation, MM = Missing Value Source: NWS Daily Summary

Daily Weather History Graph

Daily Weather History Graph

Search for Another Location

Airport or City:

Trip Planner

Search our weather history database for the weather conditions in past years. The results will help you decide how hot, cold, wet, or windy it might be!

Date:

Astronomy

Jan. 16, 2014 Rise Set
Actual Time 7:49 AM CST 5:22 PM CST
Civil Twilight 7:19 AM CST 5:53 PM CST
Nautical Twilight 6:45 AM CST 6:27 PM CST
Astronomical Twilight 6:11 AM CST 7:00 PM CST
Moon 6:16 PM CST (1/16) 7:42 AM CST (1/16)
Length of Visible Light 10h 33m
Length of Day
9h 33m
Full, 100% of the Moon is Illuminated
Jan 16
Full
Jan 23
Last Quarter
Jan 30
New
Feb 6
First Quarter
Feb 14
Full

Hourly Weather History & Observations

Time (CST) Temp. Windchill Dew Point Humidity Pressure Visibility Wind Dir Wind Speed Gust Speed Precip Events Conditions
12:15 AM 42.3 °F 37.9 °F 32.0 °F 67% 29.72 in 10.0 mi SW 6.9 mph - N/A   Scattered Clouds
12:35 AM 41.9 °F 37.5 °F 31.1 °F 66% 29.71 in 10.0 mi WSW 6.9 mph - N/A   Scattered Clouds
12:55 AM 45.1 °F 39.9 °F 30.2 °F 56% 29.71 in 10.0 mi WSW 10.4 mph - N/A   Clear
1:15 AM 46.2 °F 39.8 °F 29.8 °F 53% 29.71 in 10.0 mi West 15.0 mph 20.7 mph N/A   Clear
1:35 AM 46.9 °F - 29.1 °F 50% 29.71 in 10.0 mi West 12.7 mph 21.9 mph N/A   Clear
1:55 AM 43.9 °F 37.9 °F 29.1 °F 56% 29.72 in 10.0 mi WNW 11.5 mph - N/A   Clear
2:15 AM 42.3 °F 35.1 °F 30.0 °F 62% 29.72 in 10.0 mi NW 13.8 mph - N/A   Mostly Cloudy
2:35 AM 40.8 °F 32.6 °F 29.8 °F 65% 29.72 in 10.0 mi West 16.1 mph - N/A   Mostly Cloudy
2:55 AM 37.4 °F 28.9 °F 28.8 °F 71% 29.73 in 10.0 mi West 13.8 mph 18.4 mph N/A   Scattered Clouds
3:15 AM 43.5 °F 34.5 °F 25.7 °F 50% 29.73 in 10.0 mi WNW 23.0 mph 33.4 mph N/A   Clear
3:35 AM 43.7 °F 34.5 °F 25.7 °F 49% 29.72 in 10.0 mi WNW 24.2 mph 32.2 mph N/A   Scattered Clouds
3:55 AM 44.1 °F 34.2 °F 25.5 °F 48% 29.73 in 10.0 mi WNW 28.8 mph 34.5 mph N/A   Mostly Cloudy
4:15 AM 43.3 °F 32.5 °F 25.5 °F 49% 29.73 in 10.0 mi WNW 33.4 mph 43.7 mph N/A   Mostly Cloudy
4:35 AM 42.3 °F 31.4 °F 23.9 °F 48% 29.74 in 10.0 mi WNW 31.1 mph 46.0 mph N/A   Scattered Clouds
4:55 AM 41.2 °F 30.9 °F 23.9 °F 50% 29.75 in 10.0 mi WNW 25.3 mph 32.2 mph N/A   Clear
5:15 AM 40.1 °F 30.7 °F 23.9 °F 52% 29.75 in 10.0 mi WNW 19.6 mph - N/A   Scattered Clouds
5:35 AM 40.3 °F 31.0 °F 24.3 °F 53% 29.75 in 10.0 mi West 19.6 mph 27.6 mph N/A   Overcast
5:55 AM 40.1 °F 29.7 °F 24.3 °F 53% 29.76 in 10.0 mi WNW 24.2 mph 31.1 mph N/A   Overcast
6:15 AM 41.0 °F 31.4 °F 24.6 °F 52% 29.76 in 10.0 mi WNW 21.9 mph 40.3 mph N/A   Mostly Cloudy
6:35 AM 41.2 °F 30.1 °F 23.9 °F 50% 29.77 in 10.0 mi WNW 29.9 mph 38.0 mph N/A   Mostly Cloudy
6:55 AM 41.4 °F 30.7 °F 21.9 °F 46% 29.78 in 10.0 mi NW 27.6 mph 48.3 mph N/A   Mostly Cloudy
7:15 AM 40.3 °F 29.9 °F 22.5 °F 49% 29.79 in 10.0 mi WNW 24.2 mph 35.7 mph N/A   Mostly Cloudy
7:35 AM 40.5 °F 30.2 °F 22.8 °F 49% 29.78 in 10.0 mi WNW 24.2 mph 29.9 mph N/A   Overcast
7:55 AM 40.1 °F 30.2 °F 22.6 °F 50% 29.77 in 10.0 mi West 21.9 mph 26.5 mph N/A   Overcast
8:15 AM 40.1 °F 29.7 °F 23.0 °F 51% 29.78 in 10.0 mi West 24.2 mph 31.1 mph N/A   Mostly Cloudy
8:35 AM 40.1 °F 28.8 °F 23.7 °F 52% 29.80 in 10.0 mi WNW 28.8 mph 36.8 mph N/A   Mostly Cloudy
8:55 AM 41.0 °F 29.3 °F 23.0 °F 49% 29.81 in 10.0 mi NW 33.4 mph 43.7 mph N/A   Mostly Cloudy
9:15 AM 41.2 °F 29.9 °F 22.5 °F 47% 29.82 in 10.0 mi NW 31.1 mph 47.2 mph N/A   Mostly Cloudy
9:35 AM 41.9 °F 31.5 °F 22.6 °F 46% 29.81 in 10.0 mi NW 27.6 mph 40.3 mph N/A   Mostly Cloudy
9:55 AM 40.5 °F 29.7 °F 24.1 °F 52% 29.81 in 10.0 mi WNW 26.5 mph 41.4 mph N/A   Mostly Cloudy
10:15 AM 41.4 °F 30.5 °F 23.0 °F 48% 29.81 in 10.0 mi WNW 28.8 mph 43.7 mph N/A   Mostly Cloudy
10:35 AM 40.8 °F 28.9 °F 22.3 °F 48% 29.82 in 10.0 mi WNW 34.5 mph 43.7 mph N/A   Mostly Cloudy
10:55 AM 41.4 °F 30.0 °F 22.1 °F 46% 29.81 in 10.0 mi WNW 32.2 mph 36.8 mph N/A   Mostly Cloudy
11:15 AM 40.8 °F 28.5 °F 22.6 °F 48% 29.82 in 10.0 mi WNW 36.8 mph 41.4 mph N/A   Mostly Cloudy
11:35 AM 41.0 °F 29.7 °F 23.2 °F 49% 29.81 in 10.0 mi WNW 31.1 mph 39.1 mph N/A   Mostly Cloudy
11:55 AM 40.6 °F 28.6 °F 22.6 °F 49% 29.81 in 10.0 mi NW 34.5 mph 40.3 mph N/A   Mostly Cloudy
12:15 PM 39.7 °F 28.3 °F 23.4 °F 52% 29.80 in 7.0 mi WNW 28.8 mph 41.4 mph N/A   Mostly Cloudy
12:35 PM 39.6 °F 26.8 °F 22.1 °F 50% 29.80 in 10.0 mi WNW 36.8 mph 48.3 mph N/A   Mostly Cloudy
12:55 PM 40.5 °F 28.4 °F 20.3 °F 45% 29.79 in 10.0 mi NW 34.5 mph 44.9 mph N/A   Scattered Clouds
1:15 PM 39.9 °F 28.0 °F 19.4 °F 44% 29.79 in 10.0 mi NW 32.2 mph 43.7 mph N/A   Mostly Cloudy
1:35 PM 41.0 °F 29.1 °F 18.9 °F 41% 29.78 in 10.0 mi NW 34.5 mph 41.4 mph N/A   Mostly Cloudy
1:55 PM 41.0 °F 28.3 °F 18.7 °F 41% 29.77 in 10.0 mi WNW 40.3 mph 48.3 mph N/A   Scattered Clouds
2:35 PM 37.4 °F 24.6 °F 22.8 °F 56% 29.83 in 7.0 mi NW 32.2 mph 54.1 mph N/A   Scattered Clouds
2:55 PM 36.1 °F 21.9 °F 19.8 °F 51% 29.86 in 10.0 mi NW 38.0 mph 54.1 mph N/A   Scattered Clouds
3:15 PM 33.3 °F 17.5 °F 14.2 °F 46% 29.88 in 10.0 mi NW 40.3 mph 52.9 mph N/A   Scattered Clouds
3:35 PM 29.8 °F 14.0 °F 13.1 °F 50% 29.91 in 10.0 mi NNW 33.4 mph 41.4 mph N/A   Clear
3:55 PM 27.3 °F 11.5 °F 10.0 °F 48% 29.93 in 10.0 mi NW 28.8 mph 46.0 mph N/A   Clear
4:15 PM 26.4 °F 9.8 °F 8.6 °F 47% 29.94 in 10.0 mi NW 31.1 mph 42.6 mph N/A   Clear
4:35 PM 25.3 °F 8.3 °F 9.5 °F 51% 29.96 in 10.0 mi NW 31.1 mph 39.1 mph N/A   Clear
4:55 PM 24.3 °F 7.7 °F 8.6 °F 51% 29.97 in 10.0 mi NNW 27.6 mph 39.1 mph N/A   Clear
5:15 PM 22.3 °F 5.9 °F 9.3 °F 58% 29.99 in 10.0 mi NNW 24.2 mph 34.5 mph N/A   Clear
5:35 PM 21.7 °F 4.0 °F 8.8 °F 57% 30.00 in 10.0 mi NW 28.8 mph 36.8 mph N/A   Clear
5:55 PM 20.8 °F 5.1 °F 8.6 °F 59% 30.01 in 10.0 mi NNW 20.7 mph 31.1 mph N/A   Clear
6:15 PM 20.3 °F 3.7 °F 7.5 °F 58% 30.02 in 10.0 mi NNW 23.0 mph 32.2 mph N/A   Clear
6:35 PM 19.4 °F 2.8 °F 6.8 °F 58% 30.03 in 10.0 mi NNW 21.9 mph 27.6 mph N/A   Clear
6:55 PM 19.0 °F 1.3 °F 7.3 °F 60% 30.04 in 10.0 mi NNW 25.3 mph 35.7 mph N/A   Scattered Clouds
7:15 PM 19.0 °F 1.0 °F 8.2 °F 63% 30.04 in 10.0 mi NW 26.5 mph 41.4 mph N/A   Scattered Clouds
7:35 PM 18.5 °F 0.6 °F 9.3 °F 67% 30.06 in 10.0 mi NW 25.3 mph 34.5 mph N/A   Mostly Cloudy
7:55 PM 18.5 °F 1.3 °F 9.3 °F 67% 30.06 in 10.0 mi NW 23.0 mph 35.7 mph N/A   Mostly Cloudy
8:15 PM 18.3 °F 1.8 °F 8.6 °F 66% 30.06 in 10.0 mi NW 20.7 mph 32.2 mph N/A   Scattered Clouds
8:35 PM 18.5 °F 0.9 °F 8.1 °F 64% 30.06 in 10.0 mi NW 24.2 mph 31.1 mph N/A   Scattered Clouds
8:55 PM 19.2 °F 1.2 °F 8.1 °F 62% 30.07 in 10.0 mi NW 26.5 mph 36.8 mph N/A   Scattered Clouds
9:15 PM 19.2 °F 0.9 °F 8.4 °F 63% 30.07 in 10.0 mi NW 27.6 mph 34.5 mph N/A   Clear
9:35 PM 19.2 °F 1.9 °F 8.6 °F 63% 30.08 in 10.0 mi NW 24.2 mph 39.1 mph N/A   Clear
9:55 PM 19.0 °F 2.4 °F 8.2 °F 63% 30.08 in 10.0 mi NW 21.9 mph 32.2 mph N/A   Scattered Clouds
10:15 PM 18.7 °F 1.1 °F 8.1 °F 63% 30.08 in 10.0 mi NW 24.2 mph 34.5 mph N/A   Scattered Clouds
10:35 PM 18.3 °F 2.6 °F 7.9 °F 64% 30.09 in 10.0 mi NW 18.4 mph 23.0 mph N/A   Scattered Clouds
10:55 PM 18.1 °F 3.4 °F 5.7 °F 58% 30.10 in 10.0 mi NW 16.1 mph 27.6 mph N/A   Scattered Clouds
11:15 PM 16.9 °F 1.7 °F 5.9 °F 62% 30.09 in 10.0 mi NW 16.1 mph 19.6 mph N/A   Clear
11:35 PM 16.7 °F 0.1 °F 5.4 °F 61% 30.09 in 10.0 mi NW 19.6 mph 24.2 mph N/A   Clear
11:55 PM 16.7 °F 0.1 °F 2.5 °F 54% 30.10 in 10.0 mi NNW 19.6 mph 28.8 mph N/A   Clear